Showing default

JILIN-01 KUANFU 02B 2, 61190

Orbit data source: Space-Track

JILIN-01 KUANFU 02B 2, 61190 is a payload satellite owned by Changguang WJ (CN) in SSO that was launched on Fri, 20 Sep 2024 UTC via a CHANG ZHENG 2D launch vehicle from the Taiyaun Space Center, China (TSC). Payload-class satellites include a variety of spacecraft equipped with specific instruments for various scientific and technological missions. These include communications satellites like Starlink; space stations such as the ISS; scientific satellites like the Hubble; Earth observation satellites from companies like Planet Labs, Umbra, and HawkEye 360; GPS; miniature CubeSats for education and research; and military/defense satellites.

Loading next visibility...
Identifier
61190, 2024-169B
Orbit
SSO
Country
Flag of CNCN / PRC
Related business
Manufacturer
HARB/CGSTL
Mission
Operational Commercial Imaging
Bus & Motor
JL-1, Unknown motor
Mass
230 kg wet, ~200 kg dry
Launch date (UTC)
2024-09-20 (2 years ago)
Launch vehicle
CHANG ZHENG 2D
Launch site
Taiyaun Space Center, China (TSC)
Object type
Payload
Rocket body
Debris
Shape & HBR
Box + 2 Pan, 0.8 m
Radar Cross Section
0.514 m², Large (>1 m²)

Expand to show TLE details & history
Last TLE update: 6 hours ago

TLE from 6 hours ago
0 JILIN-01 KUANFU 02B 2
1 61190U 24169B   26163.85115787  .00003963  00000-0  25583-3 0  9996
2 61190  97.5573 252.8239 0007202  42.1051 318.0730 15.08818196 95171
Epoch: 2026-06-12T20:25Z
TLE epoch observation values (Epoch: 2026-06-12T20:25:40.039Z)
Latitude
-0.00004°
Longitude
45.2324°
Altitude
539.175 km
Speed
7.595 km/s
True Right ascension
16h 51m 17s
True Declination
0° 00' 00"
Sunlit
Object was in full shadow at epoch
Visualization orbit readout
Latitude
Unknown
Longitude
Unknown
Altitude
Unknown
Speed
Unknown
Apparent Right ascension
Unknown
Apparent Declination
Unknown
Sunlit
N/A
Visualization observer readout
Local Sidereal Time
12:42:23
Azimuth
Unknown
Elevation
Unknown
Doppler factor
Unknown
Orbital elements
Apogee altitude
541.777 km
Perigee altitude
531.817 km
Semi-major axis
6,914.934 km
Eccentricity
0.00072
Inclination
97.5573°
RAAN
252.8239°
Arg. of periapsis
42.1051°
True anomaly
318.01782°
Mean anomaly
318.073°
Eccentric anomaly
318.04541°
Mean motion
3.77451 °/min
Orbital period
95.38 mins
BSTAR
0.00025583
Loading maneuver chart data...
Computing Atmospheric mass density...
Loading historical data...
Loading historical data...
Loading historical data...
Loading historical data...
Loading historical data...
Loading historical data...
Loading historical data...

Documentation

Showing up to 5 results
|